Weather History for Tiksi, Russia

Change the Weather History Date:

Thursday, May 3, 2012

  Actual Average Record
Temperature  
Mean Temperature -8 °F -  
Max Temperature 4 °F - - ()
Min Temperature -20 °F - - ()
Degree Days  
Heating Degree Days 73    
Moisture  
Dew Point -8 °F    
Average Humidity 90    
Maximum Humidity 100    
Minimum Humidity 78    
Precipitation  
Precipitation 0.00 in - - ()
Sea Level Pressure  
Sea Level Pressure 30.18 in    
Wind  
Wind Speed 2 mph ()    
Max Wind Speed 7 mph    
Max Gust Speed -    
Visibility 3.3 miles    
Events Fog , Snow    
T = Trace of Precipitation, MM = Missing Value Source: Averaged Metar Reports

Daily Weather History Graph

Daily Weather History Graph

Search for Another Location

Airport:

Trip Planner

Search our weather history database for the weather conditions in past years. The results will help you decide how hot, cold, wet, or windy it might be!

Date:

Astronomy

May. 03, 2012 Rise Set
Actual Time 3:10 AM YAKT 11:39 PM YAKT
Civil Twilight Sun does not rise Sun does not rise
Nautical Twilight Sun does not rise Sun does not rise
Astronomical Twilight Sun does not rise Sun does not rise
Moon 5:56 PM YAKT (5/3) 3:40 AM YAKT (5/3)
Length of Visible Light 24h 00m
Length of Day
20h 28m
Waxing Gibbous, 86% of the Moon is Illuminated
May 3
Waxing Gibbous
May 6
Full
May 13
Last Quarter
May 21
New
May 29
First Quarter

Hourly Weather History & Observations

Time (YAKT) Temp. Windchill Dew Point Humidity Pressure Visibility Wind Dir Wind Speed Gust Speed Precip Events Conditions
12:00 AM -13.0 °F -24.8 °F -14.8 °F 92% 30.21 in - WNW 4.5 mph - N/A   Clear
1:00 AM -13.0 °F -24.8 °F -14.8 °F 92% 30.21 in - WNW 4.5 mph - N/A   Clear
2:00 AM -16.6 °F -29.0 °F -18.4 °F 92% 30.18 in - West 4.5 mph - N/A   Clear
3:00 AM -16.6 °F -29.0 °F -18.4 °F 92% 30.18 in - West 4.5 mph - N/A   Clear
4:00 AM -19 °F - -21 °F 85% 30.22 in 12 mi SW 2.2 mph - - Snow Snow
4:00 AM -18.4 °F -31.1 °F -20.2 °F 91% 30.18 in - West 4.5 mph - N/A   Clear
5:00 AM -18.4 °F - -20.2 °F 91% 30.18 in 0.1 mi Calm Calm - N/A Fog Fog
6:00 AM -16.6 °F - -18.4 °F 92% 30.18 in 0.2 mi Calm Calm - N/A Fog Fog
7:00 AM -16.6 °F - -18.4 °F 92% 30.18 in 0.2 mi Calm Calm - N/A Fog Fog
8:00 AM -16.6 °F -29.0 °F -18.4 °F 92% 30.18 in 0.3 mi WNW 4.5 mph - N/A Fog Fog
8:30 AM -16.6 °F -29.0 °F -18.4 °F 92% 30.18 in 0.7 mi NNW 4.5 mph - N/A   Overcast
9:00 AM -13.0 °F - -14.8 °F 92% 30.18 in 0.9 mi Calm Calm - N/A   Overcast
9:30 AM -11.2 °F - -13.0 °F 92% 30.18 in 1.9 mi Calm Calm - N/A   Overcast
10:00 AM -4 °F - -4 °F 100% 30.20 in 2 mi Calm Calm - -   Ice Crystals
10:00 AM -9.4 °F - -11.2 °F 92% 30.18 in 0.6 mi Calm Calm - N/A   Overcast
10:30 AM -9.4 °F - -11.2 °F 92% 30.18 in 0.4 mi Calm Calm - N/A Fog Fog
11:00 AM -7.6 °F - -9.4 °F 92% 30.18 in 0.4 mi Calm Calm - N/A Fog Fog
11:30 AM -5.8 °F - -7.6 °F 92% 30.18 in 0.6 mi Calm Calm - N/A   Overcast
12:00 PM -5.8 °F - -7.6 °F 92% 30.18 in 0.6 mi Calm Calm - N/A   Overcast
12:30 PM -4.0 °F -14.3 °F -5.8 °F 92% 30.18 in 1.6 mi NNE 4.5 mph - N/A   Overcast
1:00 PM -2.2 °F - -4.0 °F 92% 30.18 in 4.3 mi Calm Calm - N/A   Overcast
1:30 PM -2.2 °F - -4.0 °F 92% 30.18 in 6.2 mi Calm Calm - N/A   Overcast
2:00 PM -0.4 °F - -2.2 °F 92% 30.15 in 6.2 mi Calm Calm - N/A   Overcast
2:30 PM -0.4 °F - -2.2 °F 92% 30.15 in 6.2 mi Calm Calm - N/A   Overcast
3:00 PM 5.0 °F -3.9 °F -0.4 °F 78% 30.15 in - NE 4.5 mph - N/A   Clear
3:30 PM 1.4 °F -11.0 °F -0.4 °F 92% 30.15 in - NE 6.7 mph - N/A   Clear
4:00 PM 4 °F - 4 °F 97% 30.18 in 12 mi East 2.2 mph - -   Partly Cloudy
4:00 PM 1.4 °F -8.1 °F -0.4 °F 92% 30.15 in - ENE 4.5 mph - N/A   Clear
4:30 PM 3.2 °F -6.0 °F 1.4 °F 92% 30.15 in - ENE 4.5 mph - N/A   Clear
5:00 PM 1.4 °F -8.1 °F -0.4 °F 92% 30.15 in - ENE 4.5 mph - N/A   Clear
5:30 PM 1.4 °F -8.1 °F -0.4 °F 92% 30.15 in - East 4.5 mph - N/A   Clear
6:00 PM 3.2 °F - 1.4 °F 92% 30.15 in - Calm Calm - N/A   Clear
7:00 PM 1.4 °F -8.1 °F -0.4 °F 92% 30.15 in - South 4.5 mph - N/A   Clear
8:00 PM -0.4 °F -10.2 °F -4.0 °F 85% 30.15 in - SSE 4.5 mph - N/A   Clear
8:30 PM -0.4 °F - -4.0 °F 85% 30.18 in - Calm Calm - N/A   Clear
9:00 PM -0.4 °F -10.2 °F -4.0 °F 85% 30.18 in - South 4.5 mph - N/A   Clear
9:30 PM -2.2 °F -12.2 °F -5.8 °F 85% 30.18 in - South 4.5 mph - N/A   Clear
10:00 PM -6 °F - -7 °F 90% 30.19 in 12 mi WSW 2.2 mph - -   Clear
10:00 PM -2.2 °F -12.2 °F -5.8 °F 85% 30.18 in - SSE 4.5 mph - N/A   Clear
10:30 PM -2.2 °F -12.2 °F -5.8 °F 85% 30.18 in - South 4.5 mph - N/A   Clear
11:00 PM -2.2 °F - -5.8 °F 85% 30.18 in - Calm Calm - N/A   Clear
11:30 PM -4.0 °F - -7.6 °F 85% 30.18 in - Calm Calm - N/A   Clear